Overview Statistics Trail Chart Weather Telemetry Raw packets
 

This is the latest recevied weather packets stored in our database for station/object DL0BB-10. If no packets are shown the sender has not sent any weather packets the latest 10 day(s).

<< 27 28 29 30 31 32 33 >>
Time Temp. Humidity Pressure Rain* Wind** Luminosity Snow
1788063280 25.56° C 40% 1015.9 hPa - - - -
1788062380 26.11° C 39% 1015.9 hPa - - - -
1788061480 26.11° C 39% 1016 hPa - - - -
1788060579 25.56° C 41% 1015.9 hPa - - - -
1788059679 25.56° C 40% 1016 hPa - - - -
1788058779 26.11° C 39% 1016 hPa - - - -
1788057882 26.11° C 39% 1015.9 hPa - - - -
1788056992 25.56° C 41% 1015.8 hPa - - - -
1788056082 25.56° C 40% 1015.9 hPa - - - -
1788055182 26.11° C 39% 1015.9 hPa - - - -
1788054282 26.11° C 39% 1016 hPa - - - -
1788053382 25.56° C 41% 1015.9 hPa - - - -
1788052482 26.11° C 40% 1015.9 hPa - - - -
1788051582 26.67° C 39% 1016 hPa - - - -
1788050681 26.11° C 40% 1015.9 hPa - - - -
1788049781 25.56° C 40% 1016.1 hPa - - - -
1788048881 26.11° C 40% 1016.1 hPa - - - -
1788047981 26.67° C 39% 1015.9 hPa - - - -
1788047081 26.11° C 40% 1015.9 hPa - - - -
1788046181 26.11° C 40% 1015.8 hPa - - - -
1788045281 26.11° C 40% 1015.7 hPa - - - -
1788044381 26.67° C 38% 1015.5 hPa - - - -
1788043481 26.11° C 41% 1015.5 hPa - - - -
1788042581 26.11° C 40% 1015.5 hPa - - - -
1788041680 26.67° C 39% 1015.4 hPa - - - -

* Rain since midnight (hover to see other rain measurements)
** Current wind speed in m/s (hover to see current wind gust speed)